{"data":{"norad_id":45540,"intl_designator":"2020-025K","name":"STARLINK-1368","alt_names":[],"object_type":"PAYLOAD","status":"ACTIVE","operator":null,"country":"US","launch_date":"2020-04-22","launch_site_code":"AFETR","launch_vehicle":null,"mission":null,"orbit_class":"UNKNOWN","rcs_meters":null,"size_class":null,"mass_kg":null,"dimensions":null,"purposes":["comms"],"wikipedia_slug":null,"has_3d_model":false,"image_url":null,"decayed_at":null,"tle_current":{"epoch":"2026-09-19T15:20:08.918304Z","epoch_age_seconds":88767,"freshness":"FRESH","line1":"1 45540U 20025K   26262.63899211  .00081338  00000+0  15896-2 0  9997","line2":"2 45540  53.1524 269.6058 0004247  66.1807 293.9646 15.46766273355011","mean_motion":15.46766273,"eccentricity":0.0004247,"inclination_deg":53.1524,"raan_deg":269.6058,"arg_perigee_deg":66.1807,"mean_anomaly_deg":293.9646,"bstar":0.0015896,"rev_number":35501,"period_min":93.097452739713,"perigee_km":423.30336874245,"apogee_km":429.08296678695,"semimajor_km":6804.3301677647,"source":"CELESTRAK","updated_at":"2026-09-20T09:00:38.446035Z"}}}